Weather Roundup
Issued by NWS Chicago, IL

Home | Current Version | Previous Version | Graphics & Text | Print | Product List | Glossary On
Versions: 1 2 3 4 5 6 7 8 9 10 11 12 13 14 15 16 17 18 19 20 21 22 23 24 25 26 27 28 29 30 31 32 33 34 35 36 37 38 39 40 41 42 43 44 45 46 47 48 49 50
000
NZUS59 KLOT 302212
HRRLOT

CHICAGO AREA WEATHER ROUNDUP
NATIONAL WEATHER SERVICE CHICAGO/ROMEOVILLE IL
500 PM CDT FRI SEP 30 2016

NOTE: "FAIR" INDICATES FEW OR NO CLOUDS BELOW 12,000 FEET WITH NO
SIGNIFICANT WEATHER AND/OR OBSTRUCTIONS TO VISIBILITY.

* THESE STATIONS ARE NOT UNDER NWS QUALITY CONTROL. THEY ALSO MAY NOT
  REPORT WEATHER SUCH AS PRECIPITATION OR FOG.

ILZ005-006-012>014-019>023-302300-
NORTHEAST ILLINOIS

CITY           SKY/WX    TMP DP  RH WIND       PRES   REMARKS
OHARE          CLOUDY    63  59  87 NE15      30.08S
MIDWAY         CLOUDY    65  58  78 NE16      30.07S
AURORA         CLOUDY    67  58  72 NE16      30.08S
LANSING*       CLOUDY    64  62  94 N3        30.05S
JOLIET*        CLOUDY    65  61  86 NE17      30.06F
WAUKEGAN       CLOUDY    63  59  87 NE8       30.10S
DUPAGE AIRPORT CLOUDY    65  58  78 NE15      30.08S
WHEELING       CLOUDY    63  58  83 NE12      30.11R
KANKAKEE*      CLOUDY    64  62  93 N7        30.04S
MORRIS*        CLOUDY    65  59  81 NE5       30.05S
LEWIS AIRPORT* CLOUDY    63  61  94 NE18      30.07S
NORTHERLY ISL    N/A     62  58  86 NE15        N/A
$$

WIZ051-052-058>065-066-070>072-302300-
SOUTHEAST WISCONSIN

CITY           SKY/WX    TMP DP  RH WIND       PRES   REMARKS
MILWAUKEE      CLOUDY    61  57  87 NE10      30.15S
KENOSHA*       CLOUDY    62  59  90 NE12      30.13R
RACINE*        CLOUDY    63  58  83 NE14      30.15R
BURLINGTON     CLOUDY    60  56  88 NE10G18   30.14R
WAUKESHA       FOG       57  55  94 NE12G17   30.16S VSB 1
WEST BEND      CLOUDY    68  66  94 NE8G17    30.17S
$$

INZ001>003-010>013-019-020-302300-
NORTHWEST INDIANA

CITY           SKY/WX    TMP DP  RH WIND       PRES   REMARKS
GARY*          CLOUDY    64  63  94 N14G25    30.06S
MICHIGAN CITY* NOT AVBL
RENSSELAER*    NOT AVBL
VALPARAISO     RAIN      63  60  90 E9        30.04S
$$

LMZ740>746-302300-
SOUTHERN LAKE MICHIGAN

STATION/POSITION TIME  SKY/WX   TEMP WIND        PRES    VSBY
                                AIR  DIR/SP/G
                 (UTC)          (F)  (DEG/KT/KT) (MB)    (MI)
HARRISON CRIB    2140            64   40/ 21/ 23   N/A
BURNHAM HARBOR   2200            62   30/ 12/ 14   N/A
CALUMET HARBOR   2148            63   10/ 14/ 21 1017.7R
BURNS HARBOR     2140            63   40/ 20/ 22 1017.6S
MICHIGAN CITY    2140            63   30/ 21/ 23   N/A
$$

ABBREVIATIONS USED IN REMARKS
   TC - TEMPERATURE IN CELSIUS
  WCI - WIND CHILL INDEX
   HX - HEAT INDEX
  VSB - VISIBILITY
$$




USA.gov is the U.S. government's official web portal to all federal, state and local government web resources and services.